GW4214 Weather Reports


Display with metric or nautical units.
time (UTC)temp
F
wind
direction
speed
MPH
gust
MPH
rain 1hr
in
rain 24hr
in
rain mn
in
humidity
%
barometer
mb
20260509192001 72 273 0.0 0.0 0.00 0.00 0.00 56 1021.3
20260509191456 72 112 1.0 2.0 0.00 0.00 0.00 59 1021.6
20260509190952 71 190 0.0 0.0 0.00 0.00 0.00 58 1021.6
20260509190449 70 132 0.0 0.0 0.00 0.00 0.00 61 1021.3
20260509185947 69 287 0.0 0.0 0.00 0.00 0.00 63 1021.6
20260509185444 69 223 0.0 0.0 0.00 0.00 0.00 62 1021.3
20260509184940 69 18 0.0 1.0 0.00 0.00 0.00 62 1021.6
20260509184438 70 299 5.0 7.0 0.00 0.00 0.00 64 1021.6
20260509183934 70 227 0.0 0.0 0.00 0.00 0.00 62 1021.6
20260509183429 70 251 0.0 0.0 0.00 0.00 0.00 60 1021.6
20260509182926 69 257 0.0 0.0 0.00 0.00 0.00 62 1022.0
20260509182422 68 226 0.0 1.0 0.00 0.00 0.00 63 1022.0
20260509181920 68 344 0.0 1.0 0.00 0.00 0.00 63 1021.6
20260509181418 68 205 0.0 0.0 0.00 0.00 0.00 65 1022.0
20260509180915 67 5 1.0 1.0 0.00 0.00 0.00 66 1022.0
20260509180410 67 353 0.0 0.0 0.00 0.00 0.00 66 1022.0
20260509175907 65 211 0.0 0.0 0.00 0.00 0.00 68 1022.0
20260509175403 66 223 2.0 3.0 0.00 0.00 0.00 69 1021.6
20260509174900 65 9 2.0 2.0 0.00 0.00 0.00 69 1022.0
20260509174356 65 343 7.0 9.0 0.00 0.00 0.00 69 1022.0
20260509173852 65 24 0.0 0.0 0.00 0.00 0.00 69 1022.0
20260509173346 64 207 0.0 0.0 0.00 0.00 0.00 70 1022.0
20260509172843 64 4 4.0 7.0 0.00 0.00 0.00 71 1022.3
20260509172339 64 193 0.0 0.0 0.00 0.00 0.00 72 1022.3
20260509171835 63 305 0.0 0.0 0.00 0.00 0.00 73 1022.3
20260509171331 62 239 0.0 0.0 0.00 0.00 0.00 74 1022.3
20260509170828 62 199 0.0 0.0 0.00 0.00 0.00 75 1022.3
20260509170324 62 222 1.0 3.0 0.00 0.00 0.00 75 1022.6
20260509165824 61 348 3.0 3.0 0.00 0.00 0.00 77 1022.6
20260509165318 60 216 2.0 3.0 0.00 0.00 0.00 78 1022.6
20260509164814 61 345 2.0 2.0 0.00 0.00 0.00 78 1022.6
20260509164311 60 17 2.0 2.0 0.00 0.00 0.00 77 1022.6
20260509163807 60 292 4.0 5.0 0.00 0.00 0.00 78 1022.6
20260509163305 59 283 3.0 5.0 0.00 0.00 0.00 79 1023.0
20260509162804 59 318 4.0 6.0 0.00 0.00 0.00 79 1022.6
20260509162306 58 201 1.0 1.0 0.00 0.00 0.00 81 1023.0
20260509161759 59 210 4.0 7.0 0.00 0.00 0.00 80 1023.3
20260509161255 58 217 1.0 2.0 0.00 0.00 0.00 81 1023.3
20260509160750 58 10 2.0 3.0 0.00 0.00 0.00 81 1023.3
20260509160247 57 24 3.0 5.0 0.00 0.00 0.00 81 1023.0
20260509155742 57 339 3.0 3.0 0.00 0.00 0.00 82 1023.3
20260509155239 57 230 0.0 0.0 0.00 0.00 0.00 83 1023.3
20260509154735 56 290 3.0 5.0 0.00 0.00 0.00 83 1023.0
20260509154232 56 320 3.0 3.0 0.00 0.00 0.00 83 1023.0
20260509153729 56 211 2.0 2.0 0.00 0.00 0.00 85 1023.3
20260509153225 55 1 2.0 2.0 0.00 0.00 0.00 86 1023.3
20260509152722 55 15 3.0 3.0 0.00 0.00 0.00 86 1023.7
20260509152218 55 209 3.0 3.0 0.00 0.00 0.00 87 1023.7
20260509151715 55 310 3.0 3.0 0.00 0.00 0.00 87 1023.3
20260509151212 55 232 0.0 0.0 0.00 0.00 0.00 88 1024.0
20260509150710 55 319 1.0 1.0 0.00 0.00 0.00 89 1024.0
20260509150208 55 277 0.0 1.0 0.00 0.00 0.00 90 1024.0
20260509145704 54 212 0.0 1.0 0.00 0.00 0.00 91 1024.0
20260509145159 53 220 0.0 0.0 0.00 0.00 0.00 93 1023.3
20260509144656 53 221 0.0 0.0 0.00 0.00 0.00 94 1024.0
20260509144153 52 210 0.0 0.0 0.00 0.00 0.00 96 1024.0
20260509143650 52 224 0.0 0.0 0.00 0.00 0.00 97 1023.7
20260509143148 51 232 0.0 0.0 0.00 0.00 0.00 97 1023.7
20260509142643 51 278 0.0 0.0 0.00 0.00 0.00 98 1023.7
20260509142140 51 232 0.0 0.0 0.00 0.00 0.00 98 1023.3
20260509141636 51 223 0.0 0.0 0.00 0.00 0.00 99 1023.3
20260509141132 50 219 0.0 0.0 0.00 0.00 0.00 99 1023.7
20260509140629 50 223 0.0 0.0 0.00 0.00 0.00 99 1023.7
20260509140127 49 219 0.0 0.0 0.00 0.00 0.00 99 1023.7
20260509135624 48 221 0.0 0.0 0.00 0.00 0.00 99 1024.0
20260509135122 48 219 0.0 0.0 0.00 0.00 0.00 99 1023.7
20260509134618 48 218 0.0 0.0 0.00 0.00 0.00 99 1023.7
20260509134116 47 219 0.0 0.0 0.00 0.00 0.00 99 1023.3
20260509133614 47 219 0.0 0.0 0.00 0.00 0.00 99 1023.7
20260509133111 47 219 0.0 0.0 0.00 0.00 0.00 99 1023.7
20260509132609 47 218 0.0 0.0 0.00 0.00 0.00 99 1023.7
20260509132107 46 217 0.0 0.0 0.00 0.00 0.00 99 1023.7
20260509131602 46 217 0.0 0.0 0.00 0.00 0.00 99 1023.3
20260509131100 46 217 0.0 0.0 0.00 0.00 0.00 99 1023.3
20260509130555 46 216 0.0 0.0 0.00 0.00 0.00 99 1023.7
20260509130052 46 219 0.0 0.0 0.00 0.00 0.00 99 1023.3
20260509125548 46 216 0.0 0.0 0.00 0.00 0.00 98 1023.7
20260509125045 47 216 0.0 0.0 0.00 0.00 0.00 99 1023.3
20260509124542 47 215 0.0 0.0 0.00 0.00 0.00 99 1023.7
20260509124039 47 215 0.0 0.0 0.00 0.00 0.00 99 1023.7
20260509123537 47 215 0.0 0.0 0.00 0.00 0.00 98 1023.7
20260509123033 47 215 0.0 0.0 0.00 0.00 0.00 98 1023.7
20260509122529 47 216 0.0 0.0 0.00 0.00 0.00 98 1023.7
20260509122027 47 217 0.0 0.0 0.00 0.00 0.00 98 1023.7
20260509121523 47 217 0.0 0.0 0.00 0.00 0.00 98 1023.7
20260509121021 47 217 0.0 0.0 0.00 0.00 0.00 98 1024.0
20260509120519 48 217 0.0 0.0 0.00 0.00 0.00 98 1024.0
20260509120017 48 214 0.0 0.0 0.00 0.00 0.00 98 1024.0
20260509115513 48 215 0.0 0.0 0.00 0.00 0.00 98 1024.0
20260509115012 48 214 0.0 0.0 0.00 0.00 0.00 97 1024.0
20260509114509 48 211 0.0 0.0 0.00 0.00 0.00 98 1024.0
20260509114008 48 213 0.0 0.0 0.00 0.00 0.00 97 1024.0
20260509113506 49 213 0.0 0.0 0.00 0.00 0.00 97 1023.7
20260509113003 49 215 0.0 0.0 0.00 0.00 0.00 97 1023.7
20260509112459 49 222 0.0 0.0 0.00 0.00 0.00 97 1023.7
20260509111955 49 221 0.0 0.0 0.00 0.00 0.00 97 1023.7
20260509111454 49 223 0.0 0.0 0.00 0.00 0.00 97 1023.7
20260509110951 49 220 0.0 0.0 0.00 0.00 0.00 97 1023.7
20260509110447 49 215 0.0 0.0 0.00 0.00 0.00 97 1024.0
20260509105945 49 215 0.0 0.0 0.00 0.00 0.00 97 1024.0
20260509105443 49 216 0.0 0.0 0.00 0.00 0.00 96 1024.0
20260509104940 49 216 0.0 0.0 0.00 0.00 0.00 96 1024.0
20260509104437 50 216 0.0 0.0 0.00 0.00 0.00 96 1024.0
20260509103934 50 217 0.0 0.0 0.00 0.00 0.00 96 1024.3
20260509103431 50 220 0.0 0.0 0.00 0.00 0.00 96 1024.0
20260509102930 50 221 0.0 0.0 0.00 0.00 0.00 96 1024.0
20260509102427 50 224 0.0 0.0 0.00 0.00 0.00 96 1024.0
20260509101922 50 225 0.0 0.0 0.00 0.00 0.00 96 1024.3
20260509101419 50 220 0.0 0.0 0.00 0.00 0.00 96 1024.0
20260509100917 50 217 0.0 0.0 0.00 0.00 0.00 96 1024.0
20260509100414 50 215 0.0 0.0 0.00 0.00 0.00 95 1024.0
20260509095910 50 218 0.0 0.0 0.00 0.00 0.00 96 1024.0
20260509095408 50 217 0.0 0.0 0.00 0.00 0.00 95 1024.0
20260509094904 50 219 0.0 0.0 0.00 0.00 0.00 95 1024.3
20260509094401 50 224 0.0 0.0 0.00 0.00 0.00 95 1024.3
20260509093859 50 220 0.0 0.0 0.00 0.00 0.00 95 1024.3
20260509093356 50 221 0.0 0.0 0.00 0.00 0.00 95 1024.0
20260509092854 50 217 0.0 0.0 0.00 0.00 0.00 94 1024.3
20260509092351 50 219 0.0 0.0 0.00 0.00 0.00 94 1024.3
20260509091850 50 214 0.0 0.0 0.00 0.00 0.00 94 1024.3
20260509091346 50 214 0.0 0.0 0.00 0.00 0.00 94 1024.3
20260509090844 51 215 0.0 0.0 0.00 0.00 0.00 93 1024.3
20260509090341 51 217 0.0 0.0 0.00 0.00 0.00 93 1024.3
20260509085838 51 216 0.0 0.0 0.00 0.00 0.00 92 1024.3
20260509085335 51 217 0.0 0.0 0.00 0.00 0.00 92 1024.3
20260509084832 52 217 0.0 0.0 0.00 0.00 0.00 92 1024.3
20260509084329 52 220 0.0 0.0 0.00 0.00 0.00 92 1024.7
20260509083826 52 220 0.0 0.0 0.00 0.00 0.00 91 1024.7
20260509083323 52 218 0.0 0.0 0.00 0.00 0.00 91 1024.3
20260509082820 53 218 0.0 0.0 0.00 0.00 0.00 90 1024.7
20260509082316 53 219 0.0 0.0 0.00 0.00 0.00 90 1024.7
20260509081814 53 220 0.0 0.0 0.00 0.00 0.00 90 1024.7
20260509081310 53 222 0.0 0.0 0.00 0.00 0.00 90 1024.7
20260509080809 53 220 0.0 0.0 0.00 0.00 0.00 89 1024.7
20260509080306 53 226 0.0 0.0 0.00 0.00 0.00 89 1024.7
20260509075804 53 229 0.0 0.0 0.00 0.00 0.00 90 1024.7
20260509075301 53 227 0.0 0.0 0.00 0.00 0.00 90 1024.7
20260509074758 53 221 0.0 0.0 0.00 0.00 0.00 90 1024.7
20260509074256 53 223 0.0 0.0 0.00 0.00 0.00 90 1024.7
20260509073752 53 223 0.0 0.0 0.00 0.00 0.00 90 1024.7
20260509073248 53 221 0.0 0.0 0.00 0.00 0.00 89 1024.7
20260509072745 53 217 0.0 0.0 0.00 0.00 0.00 89 1024.7
20260509072242 53 213 0.0 0.0 0.00 0.00 0.00 89 1024.7
20260509071738 54 217 0.0 0.0 0.00 0.00 0.00 88 1024.7
20260509071236 54 219 0.0 0.0 0.00 0.00 0.00 88 1024.7
20260509070732 54 214 0.0 0.0 0.00 0.00 0.00 87 1024.7
20260509070229 54 218 0.0 0.0 0.00 0.00 0.00 87 1024.7
20260509065725 54 216 0.0 0.0 0.00 0.00 0.00 86 1024.7
20260509065221 55 216 0.0 0.0 0.00 0.00 0.00 85 1024.7
20260509064718 55 219 0.0 0.0 0.00 0.00 0.00 85 1024.7
20260509064216 55 221 0.0 0.0 0.00 0.00 0.00 84 1024.7
20260509063713 56 212 0.0 0.0 0.00 0.00 0.00 84 1024.7
20260509063209 56 210 0.0 0.0 0.00 0.00 0.00 83 1024.7
20260509062706 57 207 0.0 0.0 0.00 0.00 0.00 82 1024.7
20260509062204 57 206 0.0 0.0 0.00 0.00 0.00 82 1024.7
20260509061700 57 233 0.0 0.0 0.00 0.00 0.00 82 1024.7
20260509061158 57 223 0.0 0.0 0.00 0.00 0.00 82 1024.7
20260509060655 57 218 0.0 0.0 0.00 0.00 0.00 82 1024.7
20260509060151 57 217 0.0 0.0 0.00 0.00 0.00 81 1024.7
20260509055647 58 219 0.0 0.0 0.00 0.00 0.00 80 1024.7
20260509055143 58 215 0.0 0.0 0.00 0.00 0.00 80 1025.0
20260509054640 58 222 0.0 0.0 0.00 0.00 0.00 79 1024.7
20260509054138 58 226 0.0 1.0 0.00 0.00 0.00 79 1024.7
20260509053636 58 218 0.0 0.0 0.00 0.00 0.00 79 1024.7
20260509053132 58 225 1.0 1.0 0.00 0.00 0.00 79 1024.7
20260509052630 58 216 0.0 0.0 0.00 0.00 0.00 78 1024.7
20260509052127 59 218 0.0 0.0 0.00 0.00 0.00 77 1024.7
20260509051626 59 222 0.0 0.0 0.00 0.00 0.00 77 1024.7
20260509051122 59 217 0.0 0.0 0.00 0.00 0.00 76 1024.7
20260509050620 59 222 0.0 0.0 0.00 0.00 0.00 75 1024.7
20260509050116 60 226 1.0 1.0 0.00 0.00 0.00 75 1024.3
20260509045614 60 220 0.0 0.0 0.00 0.00 0.00 75 1024.7
20260509045110 60 224 0.0 1.0 0.00 0.00 0.00 74 1024.3
20260509044607 60 245 2.0 2.0 0.00 0.00 0.00 73 1024.3
20260509044104 60 278 3.0 5.0 0.00 0.00 0.00 73 1024.3
20260509043601 61 240 1.0 1.0 0.00 0.00 0.00 73 1024.3
20260509043057 60 221 0.0 0.0 0.00 0.00 0.00 73 1024.3
20260509042553 61 221 0.0 1.0 0.00 0.00 0.00 73 1024.3
20260509042049 61 214 0.0 0.0 0.00 0.00 0.00 72 1024.0
20260509041546 61 224 2.0 2.0 0.00 0.00 0.00 72 1024.0
20260509041044 62 306 0.0 0.0 0.00 0.00 0.00 71 1024.0
20260509040542 62 250 0.0 0.0 0.00 0.00 0.00 71 1024.0
20260509040038 62 231 2.0 3.0 0.00 0.00 0.00 70 1024.0
20260509035535 62 246 3.0 3.0 0.00 0.00 0.00 70 1024.0
20260509035032 62 279 0.0 0.0 0.00 0.00 0.00 70 1024.0
20260509034530 62 297 0.0 0.0 0.00 0.00 0.00 70 1024.0
20260509034027 63 239 2.0 2.0 0.00 0.00 0.00 70 1024.0
20260509033524 63 232 1.0 2.0 0.00 0.00 0.00 70 1024.0
20260509033021 63 240 4.0 5.0 0.00 0.00 0.00 69 1023.7
20260509032518 64 274 2.0 2.0 0.00 0.00 0.00 69 1024.0
20260509032015 64 244 1.0 2.0 0.00 0.00 0.00 68 1023.7
20260509031512 64 213 2.0 2.0 0.00 0.00 0.00 67 1023.7
20260509031010 64 237 4.0 5.0 0.00 0.00 0.00 67 1023.7
20260509030508 64 312 5.0 7.0 0.00 0.00 0.00 66 1023.7
20260509030004 65 287 3.0 7.0 0.00 0.00 0.00 65 1023.7
20260509025500 66 278 3.0 3.0 0.00 0.00 0.00 64 1023.7
20260509024956 66 335 0.0 0.0 0.00 0.00 0.00 64 1023.7
20260509024452 66 330 5.0 7.0 0.00 0.00 0.00 63 1023.7
20260509023949 66 266 0.0 0.0 0.00 0.00 0.00 62 1023.7
20260509023446 67 289 0.0 0.0 0.00 0.00 0.00 60 1023.3
20260509022943 67 321 0.0 0.0 0.00 0.00 0.00 61 1023.3
20260509022440 68 80 0.0 0.0 0.00 0.00 0.00 59 1023.3
20260509021937 68 338 2.0 3.0 0.00 0.00 0.00 59 1023.7
20260509021434 69 293 0.0 0.0 0.00 0.00 0.00 57 1023.7
20260509020932 68 269 0.0 0.0 0.00 0.00 0.00 59 1023.7
20260509020430 68 297 0.0 0.0 0.00 0.00 0.00 58 1023.3
20260509015926 68 325 0.0 1.0 0.00 0.00 0.00 58 1023.3
20260509015426 67 222 0.0 0.0 0.00 0.00 0.00 60 1023.3
20260509014922 68 213 0.0 0.0 0.00 0.00 0.00 59 1023.3
20260509014418 67 169 0.0 0.0 0.00 0.00 0.00 59 1023.3
20260509013915 68 246 1.0 2.0 0.00 0.00 0.00 59 1023.3
20260509013412 68 319 3.0 5.0 0.00 0.00 0.00 58 1023.3
20260509012907 68 214 0.0 0.0 0.00 0.00 0.00 58 1023.3
20260509012404 68 225 0.0 0.0 0.00 0.00 0.00 58 1023.3
20260509011901 68 213 0.0 0.0 0.00 0.00 0.00 57 1023.7
20260509011359 68 221 0.0 0.0 0.00 0.00 0.00 58 1023.7
20260509010857 68 287 0.0 0.0 0.00 0.00 0.00 58 1023.7
20260509010354 68 292 5.0 7.0 0.00 0.00 0.00 57 1023.7
20260509005845 69 295 3.0 6.0 0.00 0.00 0.00 56 1024.0
20260509005343 68 215 0.0 0.0 0.00 0.00 0.00 57 1023.7
20260509004843 68 145 0.0 0.0 0.00 0.00 0.00 58 1024.0
20260509004339 69 226 0.0 0.0 0.00 0.00 0.00 57 1023.7
20260509003837 68 194 0.0 0.0 0.00 0.00 0.00 58 1024.0
20260509003335 68 225 0.0 0.0 0.00 0.00 0.00 58 1024.0
20260509002832 69 228 0.0 0.0 0.00 0.00 0.00 57 1023.7
20260509002329 68 210 0.0 0.0 0.00 0.00 0.00 56 1024.0
20260509001827 69 273 1.0 2.0 0.00 0.00 0.00 56 1023.7
20260509001322 68 338 0.0 1.0 0.00 0.00 0.00 55 1024.0
20260509000820 69 220 0.0 0.0 0.00 0.00 0.00 56 1023.7
20260509000318 70 299 2.0 5.0 0.00 0.00 0.00 54 1024.0
20260508235814 71 347 2.0 3.0 0.00 0.00 0.00 54 1024.0
20260508235311 70 209 0.0 0.0 0.00 0.00 0.00 52 1024.0
20260508234808 70 223 0.0 0.0 0.00 0.00 0.00 55 1024.0
20260508234304 70 312 3.0 5.0 0.00 0.00 0.00 53 1024.0
20260508233803 69 216 0.0 0.0 0.00 0.00 0.00 54 1024.0
20260508233302 69 297 0.0 0.0 0.00 0.00 0.00 53 1024.0
20260508232759 69 243 0.0 0.0 0.00 0.00 0.00 54 1024.0
20260508232255 70 199 2.0 3.0 0.00 0.00 0.00 52 1024.0
20260508231753 68 205 0.0 0.0 0.00 0.00 0.00 52 1024.0
20260508231249 70 192 2.0 6.0 0.00 0.00 0.00 53 1024.0
20260508230746 70 206 0.0 0.0 0.00 0.00 0.00 51 1024.0
20260508230242 70 219 0.0 0.0 0.00 0.00 0.00 51 1024.0
20260508225740 69 214 0.0 0.0 0.00 0.00 0.00 52 1024.0
20260508225237 70 191 0.0 0.0 0.00 0.00 0.00 51 1024.0
20260508224734 71 208 0.0 0.0 0.00 0.00 0.00 50 1024.0
20260508224232 70 218 0.0 0.0 0.00 0.00 0.00 49 1024.3
20260508223730 68 224 0.0 0.0 0.00 0.00 0.00 52 1024.0
20260508223226 67 208 1.0 5.0 0.00 0.00 0.00 55 1024.0
20260508222724 69 171 3.0 5.0 0.00 0.00 0.00 53 1024.0
20260508222221 69 215 0.0 0.0 0.00 0.00 0.00 50 1024.0
20260508221717 68 163 0.0 0.0 0.00 0.00 0.00 51 1024.3
20260508221213 68 218 0.0 0.0 0.00 0.00 0.00 53 1024.3
20260508220710 69 222 4.0 6.0 0.00 0.00 0.00 49 1024.3
20260508220207 68 194 0.0 1.0 0.00 0.00 0.00 51 1024.3
20260508215703 68 199 0.0 0.0 0.00 0.00 0.00 51 1024.3
20260508215159 69 231 1.0 5.0 0.00 0.00 0.00 50 1024.3
20260508214657 67 225 0.0 0.0 0.00 0.00 0.00 52 1024.7
20260508214154 67 219 0.0 0.0 0.00 0.00 0.00 53 1024.7
20260508213650 66 201 0.0 0.0 0.00 0.00 0.00 56 1024.3
20260508213146 67 170 1.0 3.0 0.00 0.00 0.00 55 1024.3
20260508212643 66 226 0.0 0.0 0.00 0.00 0.00 54 1024.3
20260508212140 67 209 0.0 0.0 0.00 0.00 0.00 55 1024.3
20260508211635 68 214 1.0 2.0 0.00 0.00 0.00 54 1024.3
20260508211132 68 221 0.0 0.0 0.00 0.00 0.00 50 1024.0
20260508210628 68 329 0.0 0.0 0.00 0.00 0.00 52 1024.0
20260508210126 67 247 0.0 0.0 0.00 0.00 0.00 51 1024.7
20260508205623 66 227 0.0 0.0 0.00 0.00 0.00 55 1024.3
20260508205119 66 226 0.0 0.0 0.00 0.00 0.00 54 1024.7
20260508204615 66 240 0.0 0.0 0.00 0.00 0.00 55 1024.3
20260508204111 67 232 0.0 0.0 0.00 0.00 0.00 54 1024.3
20260508203607 66 194 0.0 0.0 0.00 0.00 0.00 55 1024.7
20260508203104 65 260 0.0 0.0 0.00 0.00 0.00 54 1024.7
20260508202600 65 175 0.0 0.0 0.00 0.00 0.00 55 1024.3
20260508202058 64 213 0.0 0.0 0.00 0.00 0.00 57 1024.3
20260508201554 65 187 4.0 7.0 0.00 0.00 0.00 56 1024.7
20260508201051 66 201 0.0 0.0 0.00 0.00 0.00 55 1024.7
20260508200548 65 281 0.0 1.0 0.00 0.00 0.00 55 1024.7
20260508200043 64 228 0.0 0.0 0.00 0.00 0.00 56 1025.0
20260508195540 62 12 4.0 7.0 0.00 0.00 0.00 60 1024.7
20260508195036 62 253 0.0 0.0 0.00 0.00 0.00 58 1024.7
20260508194534 62 197 0.0 0.0 0.00 0.00 0.00 61 1025.0
20260508194031 62 215 0.0 1.0 0.00 0.00 0.00 59 1025.0
20260508193527 62 187 3.0 5.0 0.00 0.00 0.00 61 1025.0
20260508193024 62 181 0.0 0.0 0.00 0.00 0.00 59 1025.0
20260508192521 62 207 2.0 5.0 0.00 0.00 0.00 61 1025.0